[[{"header":{"parameterUnit":"m.s-1","parameterCategory":1,"la1":30.2991,"la2":30.254,"lo1":-89.0895,"lo2":-89.0444,"dy":0.0017,"dx":0.0017,"nx":28,"ny":28,"refTime":"2024-07-05T21:00:00:Z","depth":0,"parameterNumber":2,"parameterNumberName":"U-component_of_WINDS"},"data":[0,0,0,0,0,0,0,0,0,0,0,0,0,0,0,0,0,0,0,0,0,0,0,0,0,0,0,0,0,0,0,0,0,0,0,0,0,0,0,0,0,0,0,0,0,0,0,0,0,0,0,0,0,0,0,0,0,0,2.199,2.199,0,2.2042,2.2043,2.2043,2.2032,2.2031,2.203,2.2029,2.209,2.2092,2.2095,0,0,0,0,0,0,0,0,0,0,0,0,0,2.1885,2.1887,2.199,2.199,2.1991,2.2042,2.2043,2.2044,2.2032,2.2031,2.203,2.2028,2.2089,2.2092,2.2095,0,0,0,0,0,0,0,0,0,0,0,0,0,2.1934,2.1888,2.199,2.1991,2.1992,2.2042,2.2043,2.2044,2.2032,2.2031,2.2029,2.2028,2.2088,2.2091,2.2095,2.2149,0,0,2.2107,2.2109,0,0,0,0,0,0,0,0,2.1931,2.1938,2.199,2.1991,2.1992,2.2029,2.2028,2.2079,2.2033,2.2017,2.2029,2.2027,2.2071,2.2076,2.209,2.2152,2.2155,2.2107,2.211,2.2111,2.2112,0,0,0,0,0,0,0,2.1928,2.1935,2.2011,2.1991,2.1992,2.1991,2.1996,2.2038,2.2052,2.2018,2.2018,2.2024,2.2071,2.2086,2.2091,2.2155,2.2107,2.2111,2.2113,2.2114,2.2265,2.2266,0,0,0,0,0,0,2.1923,2.1933,2.2009,2.2012,2.1957,2.1994,2.2,2.2019,2.2052,2.2055,2.2025,2.2023,2.208,2.2086,2.2093,2.2158,2.2111,2.2115,2.2117,2.2263,2.2265,2.2267,0,0,0,0,0,0,2.192,2.193,2.2007,2.1972,2.1982,2.1998,2.2019,2.202,2.2035,2.2056,2.206,2.2037,2.2079,2.2088,2.2135,2.216,2.2117,2.212,2.2261,2.2264,2.2266,2.2288,0,0,0,0,0,0,2.1917,2.1929,2.1948,2.1973,2.1984,2.2046,2.202,2.2023,2.2041,2.2039,2.2068,2.2072,2.2079,2.2129,2.2138,2.2164,2.2123,2.2259,2.2262,2.2265,2.2285,2.2291,2.2296,0,0,0,0,0,2.1914,2.1954,2.1949,2.1958,2.2008,2.2047,2.2054,2.2059,2.2043,2.2063,2.2077,2.2071,2.2155,2.2134,2.2145,2.2172,2.2257,2.2261,2.2265,2.2283,2.229,2.2296,0,0,0,0,0,0,2.1935,2.1957,2.1952,2.2001,2.2022,2.2045,2.2071,2.2066,2.2094,2.2091,2.2098,2.2105,2.2153,2.2167,2.2143,2.2226,2.2204,2.2211,2.2215,2.2222,2.2227,2.2223,2.2126,0,0,0,0,0,2.1944,2.1973,2.1992,2.2033,2.2044,2.2055,2.2073,2.2074,2.2098,2.2107,2.2124,2.2149,2.2181,2.2202,2.2233,2.2287,2.2294,2.2312,2.2317,2.2321,2.2327,2.2357,2.2365,2.2279,2.2279,2.2279,0,0,2.1966,2.1982,2.2,2.2038,2.2054,2.2085,2.2063,2.2097,2.212,2.2113,2.2158,2.2171,2.2199,2.225,2.2274,2.2264,2.2352,2.2326,2.2329,2.2333,2.2361,2.237,2.2377,2.2282,2.2282,2.2281,0,0,2.2021,2.2035,2.2071,2.2087,2.2111,2.2119,2.2127,2.2151,2.2159,2.2203,2.2198,2.2228,2.2283,2.2302,2.232,2.2381,2.2377,2.2391,2.242,2.2449,2.2455,2.2461,2.2483,2.2491,2.2396,2.2396,2.2396,0,2.2045,2.2089,2.2091,2.2124,2.2141,2.2133,2.217,2.2187,2.2221,2.2234,2.2222,2.229,2.2308,2.2363,2.2378,2.2392,2.2403,2.2388,2.2454,2.246,2.2466,2.2487,2.2495,2.2398,2.2397,2.2397,2.2397,0,2.2118,2.2149,2.2175,2.2205,2.2225,2.2261,2.2269,2.2289,2.2289,2.2298,2.2344,2.2365,2.24,2.2413,2.2415,2.2469,2.2462,2.2452,2.2431,2.2475,2.2495,2.2503,2.24,2.2399,2.2399,2.2398,0,0,2.2188,2.2217,2.2227,2.224,2.2266,2.2291,2.2326,2.2357,2.2375,2.2399,2.2429,2.2475,2.2466,2.2485,2.2489,2.2514,2.2561,2.2501,2.2502,2.2512,2.2623,2.263,2.264,2.2558,2.256,2.2561,2.262,0,2.2245,2.2305,2.2307,2.2362,2.2391,2.2383,2.2414,2.2434,2.2444,2.2471,2.2483,2.2515,2.2499,2.2511,2.2536,2.255,2.2584,2.2546,2.2589,2.259,2.2582,2.265,2.2658,2.2713,2.2628,2.263,2.2631,0,2.232,2.2343,2.24,2.2421,2.2433,2.2461,2.2489,2.2515,2.2538,2.2543,2.2564,2.2563,2.2601,2.2578,2.2631,2.2605,2.2623,2.2633,2.2635,2.2639,2.2613,2.2657,2.2731,2.2739,2.2643,2.2642,2.2641,0,2.2366,2.2411,2.2451,2.2463,2.2488,2.2508,2.252,2.2541,2.2559,2.2585,2.2597,2.2628,2.2645,2.267,2.2678,2.266,2.2731,2.2709,2.2738,2.2738,2.2754,2.2752,2.2832,2.2764,2.2764,2.2764,2.2764,0,2.2429,2.2465,2.2472,2.2497,2.2536,2.2539,2.2579,2.259,2.2609,2.2637,2.2633,2.266,2.2669,2.2698,2.2705,2.2748,2.2756,2.2762,2.2764,2.2763,2.2762,2.2775,2.2771,2.2766,2.2766,2.2765,2.2765,0,2.2487,2.2493,2.2536,2.2556,2.2561,2.259,2.2608,2.2632,2.264,2.2676,2.2684,2.2698,2.2732,2.2742,2.2784,2.2789,2.2839,2.2837,2.283,2.2831,2.2859,2.2856,2.295,2.2963,2.2887,2.2887,2.2888,0,2.2528,2.2554,2.2576,2.2593,2.2605,2.2633,2.2651,2.2655,2.2674,2.2701,2.2723,2.2755,2.2782,2.2836,2.2852,2.2883,2.2883,2.2913,2.2888,2.2885,2.2883,2.2882,2.2884,2.2918,2.2919,2.292,2.292,0,2.2599,2.26,2.2625,2.2651,2.2671,2.2693,2.2713,2.2728,2.2735,2.2757,2.279,2.281,2.2851,2.2884,2.2915,2.293,2.2927,2.2928,2.2936,2.2936,2.293,2.2934,2.2844,2.2926,2.2925,2.2925,2.2925,2.2924,2.265,2.2673,2.2691,2.2719,2.2734,2.2752,2.2776,2.2786,2.2813,2.2844,2.2845,2.2881,2.2904,2.2946,2.2962,2.2991,2.2983,2.2995,2.2998,2.3001,2.3003,2.2925,2.2997,2.2997,2.2997,2.2997,2.2997,0,2.2721,2.2731,2.2757,2.2784,2.2806,2.2798,2.282,2.2839,2.287,2.289,2.2915,2.2953,2.2984,2.3001,2.3033,2.3054,2.3053,2.3062,2.3061,2.3064,2.3009,2.2999,2.3062,2.3062,2.3062,2.3062,2.3062,2.3062,2.276,2.2798,2.2802,2.2848,2.2859,2.2892,2.2905,2.2923,2.2939,2.298,2.3005,2.3015,2.3034,2.3067,2.3096,2.3101,2.3113,2.3123,2.3126,2.3075,2.3068,2.3062,2.3052,2.3125,2.3125,2.3179,2.3179,2.318]},{"header":{"parameterUnit":"m.s-1","parameterCategory":1,"la1":30.2991,"la2":30.254,"lo1":-89.0895,"lo2":-89.0444,"dy":0.0017,"dx":0.0017,"nx":28,"ny":28,"refTime":"2024-07-05T21:00:00:Z","depth":0,"parameterNumber":3,"parameterNumberName":"V-component_of_WINDS"},"data":[0,0,0,0,0,0,0,0,0,0,0,0,0,0,0,0,0,0,0,0,0,0,0,0,0,0,0,0,0,0,0,0,0,0,0,0,0,0,0,0,0,0,0,0,0,0,0,0,0,0,0,0,0,0,0,0,0,0,1.2199,1.2199,0,1.2182,1.2182,1.2182,1.2192,1.2192,1.2192,1.2193,1.2174,1.2173,1.2172,0,0,0,0,0,0,0,0,0,0,0,0,0,1.2236,1.2235,1.2199,1.2199,1.2199,1.2182,1.2182,1.2182,1.2191,1.2192,1.2193,1.2193,1.2174,1.2173,1.2172,0,0,0,0,0,0,0,0,0,0,0,0,0,1.222,1.2235,1.2199,1.2202,1.2202,1.2183,1.2182,1.2182,1.2191,1.2192,1.2193,1.2193,1.2175,1.2173,1.2172,1.2149,0,0,1.2168,1.2167,0,0,0,0,0,0,0,0,1.2221,1.2218,1.2201,1.2201,1.2201,1.219,1.2188,1.2171,1.2191,1.2195,1.2193,1.2194,1.2179,1.2177,1.2172,1.2148,1.2148,1.2168,1.2167,1.2166,1.2166,0,0,0,0,0,0,0,1.2222,1.2219,1.2193,1.2201,1.2201,1.2202,1.2201,1.2185,1.2183,1.2195,1.2196,1.2194,1.2179,1.2174,1.2172,1.2147,1.2168,1.2166,1.2166,1.2165,1.2101,1.21,0,0,0,0,0,0,1.2223,1.222,1.2193,1.2192,1.2213,1.2201,1.2199,1.2193,1.2183,1.2183,1.2193,1.2194,1.2176,1.2174,1.2171,1.2142,1.2166,1.2165,1.2164,1.2101,1.21,1.2099,0,0,0,0,0,0,1.2224,1.2221,1.2194,1.2206,1.2203,1.22,1.2192,1.2192,1.2187,1.2182,1.2181,1.2188,1.2176,1.2173,1.2154,1.2142,1.2164,1.2163,1.2102,1.2101,1.21,1.2085,0,0,0,0,0,0,1.2225,1.2221,1.2213,1.2206,1.2202,1.2178,1.2192,1.2191,1.2185,1.2186,1.2177,1.2176,1.2176,1.2156,1.2153,1.214,1.2162,1.2104,1.2102,1.21,1.2086,1.2083,1.208,0,0,0,0,0,1.2226,1.221,1.2213,1.2209,1.2193,1.2177,1.2175,1.2176,1.2184,1.2175,1.2171,1.2177,1.2144,1.2154,1.215,1.2137,1.2104,1.2102,1.21,1.2088,1.2084,1.208,0,0,0,0,0,0,1.2216,1.2209,1.2212,1.2193,1.2186,1.2179,1.2168,1.2172,1.2162,1.2163,1.2164,1.2162,1.2141,1.2137,1.2149,1.2113,1.2125,1.2122,1.2117,1.2113,1.211,1.2111,1.2161,0,0,0,0,0,1.2211,1.22,1.2195,1.2178,1.2174,1.2172,1.2165,1.2166,1.2158,1.2155,1.215,1.2141,1.2129,1.2121,1.2109,1.2086,1.2083,1.2074,1.2071,1.2069,1.2066,1.2051,1.2047,1.2093,1.2093,1.2093,0,0,1.2202,1.2197,1.219,1.2176,1.217,1.2157,1.2169,1.2156,1.2146,1.2153,1.2134,1.213,1.212,1.2098,1.2088,1.2094,1.2053,1.2066,1.2065,1.2063,1.2049,1.2045,1.2041,1.2092,1.2092,1.2092,0,0,1.2178,1.2174,1.2159,1.2152,1.2143,1.2141,1.2138,1.213,1.2127,1.2108,1.2113,1.21,1.2079,1.2071,1.2065,1.2035,1.2038,1.2031,1.2015,1.2,1.1997,1.1993,1.1981,1.1977,1.2028,1.2028,1.2028,0,1.2167,1.2149,1.215,1.2136,1.2129,1.2134,1.2118,1.2111,1.2099,1.2093,1.21,1.2072,1.2066,1.2041,1.2033,1.2028,1.2023,1.2032,1.1997,1.1994,1.1991,1.1979,1.1975,1.2027,1.2027,1.2028,1.2028,0,1.2135,1.2123,1.2111,1.2099,1.209,1.2075,1.2072,1.2063,1.2064,1.2061,1.204,1.2033,1.2019,1.2013,1.2014,1.1987,1.1991,1.1998,1.201,1.1986,1.1974,1.197,1.2026,1.2026,1.2027,1.2027,0,0,1.2106,1.2093,1.2089,1.2082,1.2071,1.2061,1.2044,1.2031,1.2022,1.2013,1.1998,1.1979,1.1984,1.1976,1.1976,1.1963,1.1937,1.1971,1.197,1.1963,1.1905,1.19,1.1895,1.194,1.1939,1.1938,1.1905,0,1.2081,1.2053,1.2053,1.2027,1.2014,1.2018,1.2003,1.1994,1.199,1.1977,1.1972,1.1958,1.1967,1.1962,1.1949,1.1943,1.1925,1.1946,1.1924,1.1924,1.1926,1.1889,1.1884,1.1854,1.1901,1.19,1.19,0,1.2048,1.2037,1.201,1.1999,1.1993,1.1981,1.1966,1.1955,1.1944,1.1941,1.1931,1.1932,1.1914,1.1926,1.1899,1.1913,1.1904,1.1899,1.1898,1.1896,1.191,1.1885,1.1844,1.184,1.1893,1.1894,1.1894,0,1.2027,1.2006,1.1986,1.1981,1.1968,1.1958,1.1952,1.1942,1.1933,1.192,1.1914,1.1899,1.189,1.1878,1.1874,1.1884,1.1847,1.1859,1.1843,1.1843,1.1835,1.1836,1.1792,1.183,1.183,1.1831,1.1831,0,1.1999,1.1982,1.1977,1.1965,1.1945,1.1943,1.1923,1.1918,1.1908,1.1894,1.1896,1.1882,1.1878,1.1863,1.1859,1.1837,1.1833,1.1829,1.1829,1.1829,1.1829,1.1823,1.1825,1.1829,1.183,1.183,1.183,0,1.1973,1.1969,1.1948,1.1937,1.1933,1.1919,1.1909,1.1896,1.1892,1.1873,1.1869,1.1861,1.1843,1.1838,1.1817,1.1814,1.1787,1.1789,1.1791,1.1791,1.1774,1.1775,1.1724,1.1717,1.1761,1.1761,1.176,0,1.1955,1.1942,1.1929,1.192,1.1913,1.1898,1.1889,1.1886,1.1875,1.186,1.1849,1.1831,1.1817,1.1787,1.1779,1.1762,1.1762,1.1746,1.176,1.176,1.1761,1.1761,1.1759,1.1743,1.1742,1.1742,1.1742,0,1.1923,1.1921,1.1908,1.1892,1.1881,1.1869,1.1857,1.1849,1.1844,1.1832,1.1814,1.1802,1.178,1.1761,1.1743,1.1735,1.1737,1.1737,1.1732,1.1732,1.1734,1.1731,1.1783,1.1738,1.1739,1.1739,1.1739,1.1739,1.19,1.1887,1.1876,1.186,1.1851,1.1839,1.1826,1.1819,1.1804,1.1786,1.1785,1.1764,1.175,1.1726,1.1717,1.17,1.1705,1.1698,1.1696,1.1695,1.1693,1.1737,1.1697,1.1697,1.1697,1.1697,1.1697,0,1.1867,1.1859,1.1844,1.1828,1.1814,1.1817,1.1804,1.1792,1.1774,1.1762,1.1747,1.1725,1.1706,1.1696,1.1677,1.1665,1.1665,1.166,1.166,1.1658,1.169,1.1696,1.166,1.166,1.166,1.166,1.166,1.166,1.1848,1.1827,1.1823,1.1796,1.1788,1.1769,1.176,1.1749,1.1739,1.1714,1.1698,1.1692,1.1679,1.1658,1.1641,1.1638,1.163,1.1624,1.1622,1.1652,1.1656,1.166,1.1665,1.1623,1.1623,1.1591,1.1591,1.1591]}]]